Voltar ao catálogo

COSMOS 397 DEB

AtivoLEO
NORAD 21723·DEBRIS·🇷🇺 Russia

Lançado Feb 25, 1971 de Baikonur Cosmodrome

Loading…

Próximas Passagens (próximas 24 horas)

TLE

AtualizadoSource: Space-Track

Época: Sep 14, 2026, 00:48 UTC

1 21723U 71015DW  26257.03398202  .00018570  00000-0  13154-2 0  9995
2 21723  65.6616 123.9095 0175557   6.7148 353.6263 14.93232620784854

Acompanhe COSMOS 397 DEB em tempo real com AllMySat

Download on the App Store